Weather History for Cincinnati, OH

Change the Weather History Date:

Thursday, January 24, 2013

  Actual Average Record
Temperature  
Mean Temperature 20 °F -  
Max Temperature 25 °F 41 °F 70 °F (1967)
Min Temperature 16 °F 22 °F -15 °F (1963)
Degree Days  
Heating Degree Days 44    
Moisture  
Dew Point 4 °F    
Average Humidity 49    
Maximum Humidity 62    
Minimum Humidity 31    
Precipitation  
Precipitation 0.00 in - - ()
Sea Level Pressure  
Sea Level Pressure 30.49 in    
Wind  
Wind Speed 7 mph (NE)    
Max Wind Speed 14 mph    
Max Gust Speed 25 mph    
Visibility 10 miles    
Events      
Averages and records for this station are not official NWS values.
T = Trace of Precipitation, MM = Missing Value Source: NWS Daily Summary

Daily Weather History Graph

Daily Weather History Graph

Search for Another Location

Airport:

Trip Planner

Search our weather history database for the weather conditions in past years. The results will help you decide how hot, cold, wet, or windy it might be!

Date:

Astronomy

Jan. 24, 2013 Rise Set
Actual Time 7:50 AM EST 5:49 PM EST
Civil Twilight 7:21 AM EST 6:18 PM EST
Nautical Twilight 6:49 AM EST 6:50 PM EST
Astronomical Twilight 6:17 AM EST 7:22 PM EST
Moon 3:51 PM EST (1/24) 5:47 AM EST (1/24)
Length of Visible Light 10h 56m
Length of Day
9h 59m
Waxing Gibbous, 94% of the Moon is Illuminated
Jan 24
Waxing Gibbous
Jan 26
Full
Feb 3
Last Quarter
Feb 10
New
Feb 17
First Quarter

Hourly Weather History & Observations

Time (EST) Temp. Windchill Dew Point Humidity Pressure Visibility Wind Dir Wind Speed Gust Speed Precip Events Conditions
12:53 AM 21.9 °F - 9.0 °F 58% 30.16 in 10.0 mi Calm Calm - N/A   Partly Cloudy
1:53 AM 23.0 °F 15.8 °F 10.0 °F 58% 30.22 in 10.0 mi NNW 5.8 mph - N/A   Overcast
2:53 AM 21.9 °F 9.2 °F 7.0 °F 53% 30.28 in 10.0 mi NNW 13.8 mph 25.3 mph N/A   Partly Cloudy
3:53 AM 19.9 °F 7.9 °F 7.0 °F 57% 30.33 in 10.0 mi NNW 11.5 mph 19.6 mph N/A   Clear
4:53 AM 19.0 °F 6.1 °F 6.1 °F 57% 30.38 in 10.0 mi North 12.7 mph 19.6 mph N/A   Clear
5:53 AM 18.0 °F 4.2 °F 3.9 °F 54% 30.41 in 10.0 mi NNW 13.8 mph - N/A   Clear
6:53 AM 17.1 °F 4.3 °F 3.9 °F 56% 30.46 in 10.0 mi North 11.5 mph - N/A   Clear
7:53 AM 16.0 °F 4.4 °F 3.9 °F 59% 30.51 in 10.0 mi NNE 9.2 mph - N/A   Clear
8:53 AM 16.0 °F 3.6 °F 5.0 °F 62% 30.54 in 10.0 mi North 10.4 mph - N/A   Clear
9:53 AM 19.0 °F 11.1 °F 5.0 °F 54% 30.59 in 10.0 mi NNE 5.8 mph - N/A   Clear
10:53 AM 21.0 °F 10.6 °F 1.9 °F 44% 30.62 in 10.0 mi NNE 9.2 mph - N/A   Clear
11:53 AM 21.9 °F 11.7 °F 1.0 °F 40% 30.64 in 10.0 mi NE 9.2 mph - N/A   Clear
12:53 PM 23.0 °F 17.0 °F -0.0 °F 37% 30.61 in 10.0 mi ENE 4.6 mph - N/A   Clear
1:53 PM 24.1 °F 19.7 °F -0.9 °F 34% 30.58 in 10.0 mi NE 3.5 mph - N/A   Clear
2:53 PM 24.1 °F 13.7 °F -2.0 °F 32% 30.56 in 10.0 mi NE 10.4 mph - N/A   Clear
3:53 PM 25.0 °F 18.1 °F -2.0 °F 31% 30.57 in 10.0 mi NE 5.8 mph - N/A   Clear
4:53 PM 24.1 °F 19.7 °F -2.0 °F 32% 30.57 in 10.0 mi NE 3.5 mph - N/A   Clear
5:53 PM 21.0 °F 13.4 °F 1.0 °F 42% 30.57 in 10.0 mi NE 5.8 mph - N/A   Clear
6:53 PM 21.0 °F 12.4 °F -0.0 °F 40% 30.58 in 10.0 mi ENE 6.9 mph - N/A   Clear
7:53 PM 19.9 °F 12.1 °F 3.0 °F 48% 30.57 in 10.0 mi East 5.8 mph - N/A   Clear
8:53 PM 19.9 °F 12.1 °F 6.1 °F 55% 30.55 in 10.0 mi East 5.8 mph - N/A   Clear
9:53 PM 19.9 °F 13.4 °F 7.0 °F 57% 30.54 in 10.0 mi ENE 4.6 mph - N/A   Clear
10:53 PM 19.9 °F 13.4 °F 6.1 °F 55% 30.52 in 10.0 mi ESE 4.6 mph - N/A   Clear
11:53 PM 21.0 °F 16.2 °F 6.1 °F 53% 30.51 in 10.0 mi East 3.5 mph - N/A   Clear